Flag for Canada Weather past 2 weeks in Halifax, Nova Scotia, Canada

Now
32 °F

Ice fog.


Feels Like: 23 °F
Forecast: 40 / 51 °F
Wind: 12 mph from Southeast

Location: Halifax International Airport

Current Time: Apr 21, 2015 at 1:09:51 AM

Latest Report: Apr 21, 2015 at 12:00 AM


Visibility: 1 mi

Pressure: 30.35 "Hg

Humidity: 100%

Dew point: 32 °F

Location of HalifaxLocation

Historic Weather in Halifax — Graph

°F

Halifax temperature yesterday

Maximum temperature yesterday: 50 °F (at 1:00 PM)
Minimum temperature yesterday: 28 °F (at 2:00 AM)
Average temperature yesterday: 37 °F

Past Weeks' High & Low Weather Summary

 TemperatureHumidityPressure
High55 °F (Apr 17, 1:00 PM)100% (Apr 7, 9:00 PM)30.57 "Hg (Apr 7, 9:00 PM)
Low16 °F (Apr 6, 7:00 AM)27% (Apr 6, 4:00 PM)29.47 "Hg (Apr 11, 3:00 PM)
Average36 °F71%30.15 "Hg
* Reported Apr 5 11:00 PM — Apr 20 11:00 PM, Halifax, Weather by CustomWeather, © 2015

Note: Actual official high and low records may vary slightly from our data, if they occured in-between our weather recording intervals... More about our weather records

Advertising

Halifax weather history for previous 24 hours

 ConditionsComfort  
Time TempWeatherWind HumidityBarometerVisibility
11:00 PM
Mon, Apr 20
32 °FIce fog.16 mph93%30.35 "Hg1 mi
10:00 PM32 °FIce fog.14 mph93%30.35 "Hg1 mi
9:00 PM32 °FIce fog.15 mph100%30.34 "Hg2 mi
8:00 PM34 °FMostly cloudy.14 mph93%30.34 "Hg15 mi
7:00 PM36 °FOvercast.13 mph87%30.35 "Hg15 mi
6:00 PM39 °FPartly sunny.14 mph75%30.34 "Hg15 mi
5:00 PM43 °FPartly sunny.12 mph66%30.33 "Hg15 mi
4:00 PM45 °FPartly sunny.14 mph61%30.33 "Hg15 mi
3:00 PM46 °FPassing clouds.12 mph57%30.33 "Hg15 mi
2:00 PM50 °FPartly sunny.5 mph28%30.33 "Hg15 mi
1:00 PM50 °FPartly sunny.No wind37%30.33 "Hg15 mi
12:00 PM46 °FScattered clouds.7 mph37%30.34 "Hg15 mi
11:00 AM45 °FScattered clouds.5 mph46%30.34 "Hg15 mi
10:00 AM41 °FScattered clouds.8 mph57%30.33 "Hg15 mi
9:00 AM37 °FSunny.8 mph75%30.33 "Hg15 mi
8:00 AM34 °FSunny.7 mph81%30.31 "Hg15 mi
7:00 AM34 °FClear.7 mph81%30.29 "Hg15 mi
6:00 AM32 °FPassing clouds.7 mph80%30.27 "Hg15 mi
5:00 AM30 °FClear.5 mph80%30.26 "Hg15 mi
4:00 AM28 °FClear.8 mph93%30.25 "Hg15 mi
3:00 AM30 °FClear.3 mph80%30.24 "Hg15 mi
2:00 AM28 °FClear.6 mph93%30.25 "Hg15 mi
1:00 AM30 °FClear.8 mph86%30.24 "Hg15 mi
Weather by CustomWeather, © 2015

See weather overviewHow to use our weather pages